Regional Weather Roundup
Issued by NWS Goodland, KS

Home | Current Version | Previous Version | Text Only | Print | Product List | Glossary Off
Versions: 1 2 3 4 5 6 7 8 9 10 11 12 13 14 15 16 17 18 19 20 21 22 23 24 25 26 27 28 29 30 31 32 33 34 35 36 37 38 39 40 41 42 43 44 45 46 47 48 49 50

000
ASUS43 KGLD 161008
RWRGLD

GOODLAND FORECAST AREA HOURLY WEATHER ROUNDUP
NATIONAL WEATHER SERVICE GOODLAND KS
400 AM MDT WED APR 16 2014

...OFFICIAL OBSERVATIONS...

CITY           SKY/WX    TMP DP  RH WIND       PRES   REMARKS
GOODLAND KS    CLEAR     43  28  55 NW17      29.66R
HILL CITY KS   PTCLDY    49  15  25 S17G26    29.62F
IMPERIAL NEB   PTCLDY    43  30  60 NW12      29.62R
MCCOOK NEB     MOCLDY    44  23  43 SW10      29.60R
AKRON CO       CLOUDY    44  30  57 NW20      29.71R
BURLINGTON CO  PTCLDY    48  29  47 N26G32    29.68R
LIMON CO       MOCLDY    38  31  76 N17       29.75R
$$

...UNOFFICIAL OBSERVATIONS...

CITY           SKY/WX    TMP DP  RH WIND       PRES   REMARKS
COLBY KS       CLEAR     37  27  65 SW8       29.64R
GOVE KS          N/A     45  32  60 SW5         N/A
LENORA KS        N/A     48  32  54 S23         N/A
LEOTI KS         N/A     39  32  75 CALM        N/A
NORTON KS      CLEAR     46  19  34 S13       29.60R
OBERLIN KS     FAIR      43  21  42 SW10      29.61
SHARON SPRINGS   N/A     34  25  68 W7          N/A
TRIBUNE KS     PTCLDY    41  27  56 W13       29.65
WAKEENEY KS      N/A     48  16  27 MISG        N/A
KIT CARSON CO    N/A     32  23  69 MISG        N/A
$$



USA.gov is the U.S. government's official web portal to all federal, state and local government web resources and services.